Location: Ernez
(36.4595°N, 29.8755°E)
Time: 09:21:39
(UTC+00:00)

PSLV R/B - Pass Details

Date: 13 November 2025
Orbit: 561 x 590 km, 98.0° (Epoch: 05 December)

Event Time Altitude Azimuth Distance (km) Brightness Sun altitude
Rises 15:52:36 0° 141° (SE) 2,771 6.6 -12.2°
Reaches altitude 10° 15:54:58 10° 129° (SE) 1,872 5.7 -12.6°
Maximum altitude 15:58:24 27° 71° (ENE) 1,112 4.3 -13.3°
Drops below altitude 10° 16:01:49 10° 13° (NNE) 1,869 5.8 -14.0°
Sets 16:04:11 0° 1° (N) 2,766 6.8 -14.4°
